Date,TemperatureHighF,TemperatureAvgF,TemperatureLowF,DewpointHighF,DewpointAvgF,DewpointLowF,HumidityHigh,HumidityAvg,HumidityLow,PressureMaxIn,PressureMinIn,WindSpeedMaxMPH,WindSpeedAvgMPH,GustSpeedMaxMPH,PrecipitationSumIn
2013-1-1,45,38,32,25,21,16,56,50,45,29.96,29.84,4,-3,18,0.00
2013-1-2,47,36,29,23,15,8,55,42,29,30.19,29.93,10,-15,19,0.00
2013-1-3,53,32,24,20,11,7,52,41,27,30.19,30.07,6,-28,6,0.00
2013-1-4,58,38,30,23,14,10,46,38,25,30.13,30.04,9,-73,9,0.00
2013-1-5,58,40,31,22,15,10,43,36,25,30.31,30.07,6,-74,7,0.74
2013-1-6,54,42,31,27,21,17,59,42,30,30.13,29.96,5,-56,5,0.00
2013-1-7,55,40,29,23,18,14,53,41,28,30.40,30.07,21,-2,21,0.00
2013-1-8,67,40,27,30,20,13,62,46,23,30.34,30.25,19,-3,19,0.00
2013-1-9,52,40,29,35,26,17,68,58,31,30.34,30.16,6,-12,6,0.00
2013-1-10,75,50,41,32,22,18,43,33,18,30.55,30.31,20,-51,20,0.00
2013-1-11,48,42,36,38,28,19,80,57,40,30.43,30.04,20,-12,20,0.89
2013-1-12,68,48,42,48,39,36,85,71,37,30.13,30.01,3,-8,57,0.04
2013-1-13,57,51,44,56,47,37,96,87,79,30.07,29.93,3,0,3,0.00
2013-1-14,60,53,40,58,42,29,97,68,47,30.28,29.93,12,-53,12,0.12
2013-1-15,41,39,37,36,34,32,84,81,77,30.31,30.10,18,-81,18,1.26
2013-1-16,41,38,35,38,34,31,87,85,82,30.10,29.84,17,-12,17,0.83
2013-1-17,44,41,37,38,28,22,88,60,44,30.10,29.93,6,-8,6,0.76
2013-1-18,53,37,30,23,14,7,57,39,24,30.43,29.96,20,-16,20,0.41
2013-1-19,73,44,29,32,20,15,56,40,20,30.31,29.90,21,-50,21,0.81
2013-1-20,69,46,34,28,16,1,51,32,17,30.01,29.78,19,-67,115,0.46
2013-1-21,57,36,28,24,10,3,42,34,25,30.04,29.75,18,-38,18,0.46
2013-1-22,37,22,16,7,-4,-10,40,30,22,30.19,29.84,11,-23,11,0.46
2013-1-23,34,21,12,5,-4,-10,40,32,25,30.25,30.01,6,-20,6,0.00
2013-1-24,35,23,18,10,3,-6,58,42,30,30.40,29.96,18,-7,18,0.00
2013-1-25,26,21,16,10,2,-7,56,43,33,30.40,29.96,6,-52,6,0.32
2013-1-26,39,29,23,20,15,9,63,56,43,30.34,29.96,4,-58,4,0.04
2013-1-27,52,35,26,20,12,7,49,39,27,30.49,30.31,4,-126,19,1.08
2013-1-28,43,38,33,36,28,15,78,69,47,30.40,29.96,5,-77,6,1.19
2013-1-29,82,58,39,51,42,33,84,60,30,30.07,29.90,4,-47,4,0.00
2013-1-30,62,58,56,55,51,43,93,79,58,29.93,29.22,9,-20,9,1.41
2013-1-31,57,42,29,55,21,6,94,46,29,29.84,29.16,13,-15,13,3.78
2013-2-1,38,28,18,18,5,-4,65,38,27,30.31,29.75,21,-1,21,1.17
2013-2-2,31,23,14,18,6,-4,63,48,36,30.31,29.90,6,-29,6,2.18
2013-2-3,39,31,27,24,20,17,71,64,52,29.93,29.72,19,-15,20,0.00
2013-2-7,40,39,38,21,19,18,50,45,41,30.25,30.10,3,1,3,2.26
2013-2-8,42,37,33,32,25,15,75,62,44,30.10,29.72,19,-2,19,0.17
2013-2-9,53,37,29,20,12,6,49,37,24,30.31,29.90,15,-13,15,1.32
2013-2-10,60,38,23,23,12,6,52,36,20,30.37,30.13,7,-7,7,0.00
2013-2-11,62,48,37,46,34,15,75,60,27,30.16,29.66,20,-16,20,0.08
2013-2-12,72,52,40,30,21,15,40,30,19,29.93,29.75,9,-114,12,0.00
2013-2-13,48,38,33,28,22,17,75,54,39,29.90,29.60,4,-44,20,0.05
2013-2-14,62,43,33,29,23,17,75,48,26,29.96,29.72,6,-12,6,0.12
2013-2-15,74,44,32,33,25,17,73,50,22,29.99,29.84,8,-11,8,1.46
2013-2-16,41,36,30,30,21,7,75,55,38,29.96,29.78,10,-15,11,1.46
2013-2-17,40,29,24,10,5,-1,45,37,28,30.10,29.78,12,-13,21,0.92
2013-2-18,60,35,20,22,6,-2,40,30,17,30.28,30.04,18,-7,18,0.00
2013-2-19,55,41,36,35,22,11,65,48,32,30.04,29.63,10,-25,20,1.04
2013-2-20,51,35,24,18,9,0,41,34,27,30.07,29.78,11,-58,11,0.00
2013-2-21,49,32,24,17,7,0,41,35,27,30.22,30.01,21,-9,21,0.00
2013-2-22,35,32,29,23,16,9,62,51,41,30.28,30.10,5,-40,5,0.04
2013-2-23,50,40,34,40,31,22,78,72,62,30.10,29.75,20,-83,20,0.00
2013-2-24,62,44,33,37,25,11,79,50,24,30.07,29.72,57,-10,57,0.00
2013-2-25,63,40,29,26,15,10,49,36,22,30.16,30.01,6,-25,6,0.78
2013-2-26,42,36,28,38,25,11,86,65,44,30.13,29.57,20,-3,20,1.52
2013-2-27,66,48,39,42,31,24,86,57,27,29.63,29.48,7,-16,21,0.66
2013-2-28,49,43,37,31,23,19,62,44,33,29.69,29.57,21,-24,21,0.00
2013-3-1,45,40,35,22,20,15,48,43,37,29.84,29.66,21,-10,21,0.00
2013-3-2,39,34,30,16,14,10,46,42,39,29.84,29.72,9,-10,9,0.00
2013-3-3,49,36,30,17,12,8,48,38,27,29.87,29.72,12,-9,12,0.00
2013-3-4,54,37,28,19,10,6,42,33,23,29.96,29.84,11,-5,12,0.00
2013-3-5,69,45,34,23,14,8,59,30,17,29.99,29.75,19,2,19,0.28
2013-3-6,35,35,34,29,27,22,80,72,59,29.75,29.54,2,-10,2,0.00
2013-3-7,52,45,38,23,20,18,50,37,30,30.13,30.01,8,3,13,0.66
2013-3-8,55,42,36,24,20,17,51,41,29,30.22,30.07,21,-9,21,1.01
2013-3-9,74,48,33,32,20,13,52,35,18,30.28,30.19,6,-3,6,1.01
2013-3-10,81,52,30,32,20,14,56,33,14,30.25,30.13,6,-12,115,0.00
2013-3-11,61,52,42,43,33,16,68,50,28,30.16,29.84,7,-3,7,0.00
2013-3-12,64,54,41,50,37,20,84,55,29,29.93,29.69,10,-10,10,1.29
2013-3-13,58,42,33,24,18,11,52,39,22,30.04,29.87,21,-15,21,0.00
2013-3-14,55,39,31,19,12,8,42,33,23,30.07,29.99,13,-10,13,0.29
2013-3-15,70,47,32,28,18,9,41,31,19,30.04,29.72,9,-16,9,0.45
2013-3-16,69,49,39,39,29,22,62,48,33,29.87,29.57,20,-7,20,0.00
2013-3-17,41,38,33,28,23,17,70,54,40,30.19,29.84,20,1,20,0.21
2013-3-18,38,35,33,30,26,20,80,69,46,30.25,29.84,4,1,4,0.29
2013-3-19,68,46,35,38,25,5,85,52,16,29.87,29.66,172,-20,172,0.26
2013-3-20,59,44,32,17,9,1,40,24,17,29.96,29.72,10,-10,10,0.00
2013-3-21,42,34,26,18,9,1,47,35,26,29.84,29.72,20,-10,21,0.00
2013-3-22,60,39,25,21,10,2,38,31,19,29.93,29.81,20,-6,20,0.00
2013-3-23,66,44,27,24,14,9,49,32,17,29.96,29.84,10,-7,10,0.00
2013-3-24,47,37,31,26,18,12,71,46,30,29.93,29.54,4,-12,4,0.02
2013-3-25,46,37,34,30,28,26,77,69,51,29.63,29.45,4,-8,4,0.43
2013-3-26,56,42,35,29,24,19,78,51,28,29.96,29.60,21,-11,21,0.05
2013-3-27,57,43,35,27,20,16,53,41,27,30.07,29.93,9,-1,11,0.00
2013-3-28,51,43,36,25,21,17,46,41,33,30.19,30.01,12,-6,12,0.00
2013-3-29,61,48,39,29,22,15,53,37,25,30.22,30.07,21,-3,21,0.56
2013-3-30,77,50,34,29,20,14,54,33,15,30.16,30.04,6,-8,18,0.00
2013-3-31,52,47,40,42,32,16,78,58,34,30.04,29.69,3,-4,3,0.00
2013-4-1,65,51,41,40,30,12,84,48,25,29.96,29.69,17,-24,17,0.00
2013-4-2,60,44,33,17,11,5,35,26,17,30.10,29.96,9,-2,21,0.00
2013-4-3,59,42,29,19,10,5,37,27,17,30.34,30.07,20,-24,20,0.60
2013-4-4,59,40,26,25,11,1,57,30,18,30.34,29.99,20,-21,20,1.15
2013-4-5,73,52,38,34,25,11,72,40,16,29.99,29.78,9,-7,9,0.12
2013-4-6,75,51,36,27,16,10,40,26,13,30.28,29.99,6,-6,19,0.00
2013-4-7,82,58,41,36,26,14,42,30,20,30.19,29.93,20,-11,20,0.00
2013-4-8,96,71,53,42,36,32,49,30,14,30.07,29.90,7,-16,7,0.00
2013-4-9,100,77,62,47,41,38,45,30,15,30.07,29.90,20,-7,20,0.00
2013-4-10,98,80,64,50,43,39,45,29,16,29.96,29.75,6,-7,6,0.64
2013-4-11,98,75,59,52,46,38,63,39,17,29.90,29.69,8,-17,8,0.65
2013-4-12,90,62,54,62,50,40,85,67,31,29.84,29.54,20,-7,20,1.52
2013-4-13,82,61,45,40,30,20,59,34,17,29.93,29.78,19,-7,20,3.19
2013-4-14,77,59,42,34,28,19,51,32,21,30.10,29.93,6,-16,6,1.57
2013-4-15,71,61,57,44,38,32,59,43,35,30.25,30.07,6,-3,6,0.00
2013-4-16,85,67,57,52,48,42,72,53,29,30.28,30.10,7,-12,7,0.00
2013-4-17,80,68,59,59,52,49,83,59,38,30.22,30.10,5,-3,5,0.00
2013-4-18,86,69,61,62,52,45,80,59,30,30.22,29.96,7,-12,8,1.52
2013-4-19,76,67,53,62,54,36,80,64,50,30.01,29.60,9,-15,9,1.90
2013-4-20,69,55,44,36,24,16,53,31,20,30.31,29.78,10,-19,10,1.94
2013-4-21,63,49,37,26,20,15,46,32,21,30.55,30.31,7,-7,7,0.21
2013-4-22,69,50,35,32,26,19,62,41,23,30.55,30.34,19,-25,19,0.00
2013-4-23,72,53,45,38,32,26,61,46,26,30.37,30.07,5,1,5,0.00
2013-4-24,82,62,43,52,42,34,75,51,25,30.07,29.78,18,-16,18,0.00
2013-4-25,78,57,44,36,27,22,45,33,18,30.28,29.96,10,-11,10,0.00
2013-4-26,76,58,45,33,27,21,49,32,20,30.43,30.25,6,-3,6,0.00
2013-4-27,80,60,42,38,32,27,65,39,20,30.40,30.25,5,-7,5,0.00
2013-4-28,60,55,47,46,37,29,69,52,35,30.28,30.10,18,-9,18,0.04
2013-4-29,62,57,54,57,51,43,87,79,60,30.13,30.01,4,-13,4,0.31
2013-4-30,61,58,55,56,53,48,92,86,78,30.28,30.07,4,-26,4,0.08
2013-5-1,81,62,51,49,38,29,80,46,20,30.40,30.25,19,-4,19,0.01
2013-5-2,80,57,42,43,38,33,73,51,22,30.43,30.31,19,-22,19,0.00
2013-5-3,76,58,44,46,37,28,76,49,22,30.37,30.25,20,-12,20,0.07
2013-5-4,75,58,44,41,35,30,71,46,24,30.31,30.13,4,-8,57,0.00
2013-5-5,73,56,43,37,33,30,67,44,23,30.22,30.10,6,-22,6,0.00
2013-5-6,60,55,48,55,46,34,85,71,55,30.16,30.01,3,-13,3,0.07
2013-5-7,63,60,58,62,58,54,97,92,85,30.04,29.90,19,-8,19,1.28
2013-5-8,69,59,53,60,55,52,98,87,56,30.01,29.96,5,-13,5,2.24
2013-5-9,79,62,52,60,52,46,97,74,33,30.04,29.90,6,-14,20,0.04
2013-5-10,88,70,55,60,52,47,85,59,26,30.04,29.87,7,-21,7,0.37
2013-5-11,80,68,62,63,58,50,91,71,46,29.96,29.75,4,-18,4,0.41
2013-5-12,68,59,48,48,33,21,66,39,22,30.04,29.78,9,-72,9,0.00
2013-5-13,63,51,43,29,24,19,51,35,24,30.16,30.01,8,-13,8,0.18
2013-5-14,68,53,37,33,28,24,67,41,24,30.22,30.01,6,-27,18,0.00
2013-5-15,90,67,51,56,46,32,64,47,29,30.04,29.66,4,-13,20,0.00
2013-5-16,82,74,69,55,48,41,54,39,30,29.96,29.78,6,-11,6,0.00
2013-5-17,88,72,60,55,48,43,71,45,22,30.16,29.96,5,-18,5,0.00
2013-5-18,68,63,60,56,52,45,87,68,44,30.25,30.13,18,-13,17,0.04
2013-5-19,72,65,60,65,60,56,92,85,69,30.22,30.07,2,-23,2,0.16
2013-5-20,84,72,66,66,63,60,91,75,47,30.13,29.99,18,-4,18,0.18
2013-5-21,90,76,67,68,64,61,89,68,41,30.04,29.90,4,-8,17,0.00
2013-5-22,92,77,67,69,64,54,90,67,35,29.99,29.84,6,-31,6,0.54
2013-5-23,80,69,64,67,62,55,91,79,49,29.96,29.78,5,-21,5,1.11
2013-5-24,64,57,48,61,41,24,92,59,35,30.19,29.78,20,-15,20,0.94
2013-5-25,69,54,44,34,27,23,48,37,23,30.22,30.07,9,-11,9,1.76
2013-5-26,78,62,50,34,29,26,42,30,18,30.25,30.13,21,-12,21,0.00
2013-5-27,69,59,46,48,38,32,65,47,31,30.28,30.19,4,-22,172,0.00
2013-5-28,84,67,54,61,54,46,83,64,43,30.22,30.07,20,-8,20,1.73
2013-5-29,91,76,66,64,59,53,81,58,29,30.16,30.07,6,-16,20,0.00
2013-5-30,94,80,67,64,59,54,77,52,28,30.22,30.13,4,-8,18,0.00
2013-5-31,94,79,66,64,57,52,79,49,25,30.19,30.01,17,-21,20,0.00
2013-6-1,93,79,68,63,58,54,70,51,29,30.07,29.96,20,-23,20,0.84
2013-6-2,84,74,69,67,61,54,93,66,46,29.96,29.90,6,-27,6,1.84
2013-6-3,79,71,67,67,62,48,95,74,44,30.01,29.90,17,-26,20,1.16
2013-6-4,80,67,58,48,42,36,60,42,24,30.16,30.01,5,-21,6,0.59
2013-6-5,83,67,56,54,49,45,75,53,32,30.19,30.07,4,-19,18,0.00
2013-6-6,70,66,63,63,54,44,93,69,46,30.10,29.90,18,-22,18,0.54
2013-6-7,70,66,64,69,65,62,98,96,91,29.93,29.66,4,-55,20,0.79
2013-6-8,83,71,63,64,58,53,92,66,37,30.16,29.78,21,-31,21,0.00
2013-6-9,82,71,63,67,61,56,88,72,58,30.25,30.13,3,-81,3,0.17
2013-6-10,81,71,68,76,68,63,98,91,69,30.19,29.84,20,-13,20,1.95
2013-6-11,83,73,66,68,62,56,98,73,43,29.93,29.84,20,-4,20,0.00
2013-6-12,90,78,68,65,60,57,74,57,36,29.96,29.84,6,-17,20,0.00
2013-6-13,85,72,67,68,62,50,90,72,47,29.90,29.54,14,-31,14,1.25
2013-6-14,83,70,63,50,47,42,60,45,25,30.07,29.66,7,-38,7,1.33
2013-6-15,87,72,62,54,50,46,66,49,25,30.16,30.01,4,-32,4,1.33
2013-6-16,82,72,63,64,56,50,74,59,43,30.07,29.96,6,-9,6,1.28
2013-6-17,89,77,68,65,59,56,75,55,35,30.07,29.96,4,-13,4,0.00
2013-6-18,74,70,67,69,64,57,91,81,64,29.99,29.84,3,-44,20,0.33
2013-6-19,79,69,65,64,61,54,96,76,44,30.22,29.96,3,-42,3,0.29
2013-6-20,81,71,63,64,57,48,90,66,41,30.34,30.19,3,-39,3,0.63
2013-6-21,87,72,59,55,51,48,76,51,29,30.34,30.25,3,-27,3,0.66
2013-6-22,90,75,63,63,59,56,83,60,35,30.31,30.19,17,-23,17,0.66
2013-6-23,92,76,68,68,64,59,86,67,34,30.28,30.13,4,-81,4,0.00
2013-6-24,91,76,69,71,66,60,86,72,38,30.25,30.07,4,-160,4,0.70
2013-6-25,94,80,68,69,65,54,90,63,37,30.13,29.96,17,-89,17,1.17
2013-6-26,88,75,67,69,65,60,89,73,49,29.99,29.90,4,-35,4,0.16
2013-6-27,84,74,68,70,67,64,92,79,60,29.93,29.66,3,-42,4,0.00
2013-6-28,88,76,70,68,64,53,84,66,44,29.72,29.54,19,-30,19,0.00
2013-6-29,71,70,68,60,59,58,73,69,65,29.63,29.60,0,0,0,0.00